Theta_e
319 318 318 318 317 318 318 318 318 318 318 319 319 319 319 320 321 321 321 322 322 323 324 324 325 325 326 326 327 325 322 322 321 317 315 318 327 333 334 336 336 337 336 327 320 312 307 308 307 309 311 313 316 313 315 317 314 316 303 299 296 295 298 300 299 298 301 299 298 300 301 301 298 301 303 304 303 303 303 302 304 306 306 309 317 325 325 324
319 318 318 317 317 318 317 318 318 317 318 318 318 318 319 319 319 320 321 321 322 323 323 324 325 325 326 325 326 325 321 327 314 313 311 324 332 334 334 335 335 334 332 322 312 307 306 306 307 306 308 306 318 311 315 313 317 308 300 298 294 300 300 301 301 302 299 299 300 301 301 301 301 301 301 299 299 300 299 301 302 303 305 306 311 322 322 322
319 318 317 317 317 317 317 317 317 317 316 317 317 317 318 318 319 320 320 321 321 322 323 324 324 325 325 325 325 322 325 324 313 309 322 331 332 333 335 333 334 333 325 318 314 310 307 308 307 305 305 303 307 306 311 309 310 306 304 296 298 303 300 302 303 301 302 303 301 300 301 301 302 301 303 299 297 300 298 297 299 300 302 304 308 316 319 320
318 318 316 316 316 316 316 316 317 316 316 316 316 316 317 317 318 319 320 320 321 321 322 323 324 324 324 324 324 322 323 324 304 314 322 332 332 333 331 333 331 327 324 322 319 311 310 309 307 306 308 303 304 311 303 307 304 305 300 299 301 299 299 301 302 302 302 302 303 300 301 301 302 303 301 300 297 297 299 301 301 301 302 305 306 312 317 317
318 317 316 315 315 315 315 316 316 315 315 316 316 316 317 318 318 319 320 321 321 321 322 323 324 324 324 324 323 323 325 301 302 318 320 330 333 330 329 330 331 320 316 316 312 309 308 307 307 306 308 299 303 304 300 305 308 306 298 300 300 301 298 301 301 300 300 301 303 300 298 300 303 303 301 301 296 295 300 304 304 304 304 307 306 310 314 316
317 317 316 315 315 314 315 315 315 315 316 316 316 316 317 318 319 319 320 320 321 321 321 322 323 323 323 322 321 326 317 290 315 323 327 328 331 327 327 328 329 321 313 310 309 311 308 306 305 304 301 300 298 297 299 301 304 297 300 300 300 301 300 302 302 300 299 302 301 300 302 302 301 301 301 300 299 301 303 305 305 305 308 309 308 310 310 314
317 316 315 314 314 314 314 314 314 315 316 316 316 317 317 318 319 319 319 320 320 321 321 322 323 323 321 320 323 319 307 310 312 326 329 327 327 331 324 323 328 318 312 310 308 309 306 304 304 302 301 300 299 298 301 301 304 301 297 299 299 301 300 301 299 300 299 300 300 301 302 301 300 297 302 300 302 303 304 305 305 304 306 309 308 309 309 311
317 316 315 314 313 314 314 313 314 314 315 315 316 317 317 318 318 319 319 320 320 321 321 322 322 322 319 324 316 306 309 305 318 326 322 327 321 316 323 321 316 321 313 310 308 305 306 303 302 306 300 298 299 301 302 300 301 297 298 300 300 301 301 300 299 299 301 302 301 301 300 299 301 300 299 299 302 303 304 304 304 305 304 305 309 308 310 310
316 316 315 314 313 313 313 313 314 314 314 315 315 316 316 317 318 318 319 319 320 320 321 322 322 321 319 317 313 305 299 319 320 319 321 318 314 313 322 318 319 313 311 309 310 308 310 305 303 306 298 300 303 300 299 298 296 300 300 300 300 300 301 300 300 301 301 302 301 300 299 301 300 301 299 301 302 304 304 304 304 304 303 303 304 309 308 309
316 316 315 314 313 312 312 312 312 313 314 315 315 316 316 317 317 318 318 319 320 320 320 321 322 320 316 318 313 298 315 315 320 317 318 315 313 312 315 320 315 313 310 310 310 308 309 307 308 308 310 302 304 301 302 300 298 303 300 301 300 300 300 301 301 301 302 303 301 299 299 300 299 300 294 301 302 303 303 304 304 304 303 303 303 304 307 308
316 315 315 314 313 312 312 313 313 313 314 314 315 316 316 317 317 317 318 319 320 320 320 321 322 320 323 312 306 296 319 321 319 314 315 316 314 315 318 315 313 315 312 310 312 310 312 310 311 310 306 301 303 300 301 302 303 303 301 300 300 300 301 301 301 300 300 300 301 301 298 300 300 300 297 302 303 304 303 303 303 302 302 301 303 303 303 305
316 315 315 314 314 313 313 313 313 313 314 314 315 316 316 317 317 317 318 318 320 320 321 321 321 319 311 311 301 303 315 315 316 314 320 319 317 317 319 315 315 320 312 310 315 316 316 314 312 306 299 305 297 301 300 303 303 302 301 296 298 300 299 299 299 300 300 300 300 302 298 296 297 296 301 302 303 303 303 303 302 302 302 303 302 302 303 303
315 314 314 314 313 313 313 313 313 313 314 315 315 316 316 316 317 317 318 319 320 321 320 321 319 321 319 299 305 318 319 316 316 314 316 317 315 315 318 319 320 316 315 312 312 316 318 313 312 306 308 304 300 296 302 305 303 303 301 298 297 296 295 300 301 300 300 301 302 300 288 291 297 300 303 302 302 302 302 301 301 302 302 303 303 302 303 304
314 314 313 313 312 313 313 313 314 314 315 315 315 316 316 316 317 317 318 318 320 321 321 319 319 313 309 298 312 319 317 318 319 315 319 320 316 321 319 322 320 316 318 310 315 313 319 313 317 307 311 303 300 306 303 302 303 296 298 301 294 291 291 300 301 299 298 301 300 301 290 291 297 301 303 303 304 302 300 300 300 302 303 303 303 302 303 305
314 313 313 313 314 314 313 313 314 315 315 315 316 316 316 316 317 317 318 318 320 321 320 318 317 316 300 304 316 317 327 317 314 314 319 316 314 315 314 315 313 312 310 312 315 316 311 317 316 304 301 305 304 301 297 297 297 298 292 289 293 292 295 299 302 299 296 298 300 298 291 292 297 299 301 303 303 303 300 299 300 302 302 303 304 304 303 305
314 313 313 314 314 313 313 313 315 315 316 316 316 316 316 317 317 317 319 319 321 321 320 318 319 312 300 298 314 325 322 310 310 319 315 318 319 314 315 315 316 315 313 309 314 311 311 314 306 305 301 303 300 297 295 295 295 297 292 293 290 292 294 296 298 301 300 298 300 297 290 295 296 299 300 300 301 301 299 299 300 302 302 302 301 303 304 304
315 315 314 314 314 313 314 315 315 315 316 316 316 317 317 318 318 319 320 321 320 319 318 312 310 307 297 309 308 309 306 316 314 318 316 315 315 315 313 315 311 311 314 314 318 317 311 307 305 304 307 297 297 299 292 290 291 291 294 289 297 291 292 290 296 299 301 298 294 296 293 294 297 299 300 300 301 300 299 300 301 301 301 302 302 302 303 303
316 314 314 315 315 315 316 316 316 316 316 316 316 316 316 319 320 319 320 318 321 315 315 312 310 308 296 301 301 304 313 312 318 314 316 311 315 312 315 309 310 310 312 307 312 307 309 302 303 298 297 299 296 294 289 286 291 290 290 289 291 295 293 292 291 296 298 297 294 294 294 294 297 299 300 301 301 300 299 299 300 300 300 300 302 303 303 303
317 316 316 316 316 316 316 316 316 316 316 317 318 319 319 320 319 319 316 314 310 300 299 299 300 291 294 298 309 311 316 316 315 315 309 313 318 315 314 312 313 305 303 300 300 304 305 303 304 298 292 292 293 295 293 296 295 292 295 294 292 291 291 290 295 297 297 294 293 293 292 294 296 297 299 300 301 300 300 300 300 300 301 301 302 302 303 303
317 317 317 317 317 317 317 317 316 316 317 315 318 316 316 312 310 302 309 310 301 302 304 303 302 301 304 307 308 309 314 316 306 312 315 315 313 312 308 308 312 309 301 298 302 302 307 297 292 291 294 295 296 297 298 296 295 294 296 295 291 292 293 295 295 296 297 294 292 293 294 294 295 297 298 299 299 298 298 297 298 300 301 301 301 302 302 303
318 318 318 317 318 318 318 317 317 316 316 314 316 314 298 299 294 293 300 302 303 307 304 303 305 306 306 308 308 308 304 306 310 310 316 318 311 307 303 305 303 299 299 302 301 302 303 295 295 296 298 299 298 298 297 297 294 294 294 293 291 295 291 296 295 296 296 293 290 292 292 293 295 296 297 298 298 298 298 298 299 299 300 301 302 302 303 303
318 318 318 318 317 317 318 317 316 316 316 314 315 310 304 310 310 309 307 293 302 308 305 308 306 304 310 309 311 313 313 302 308 309 316 316 308 302 301 301 298 294 299 300 298 296 294 291 296 299 299 298 298 297 296 295 296 295 292 291 292 292 294 295 295 296 297 294 289 291 290 293 295 296 297 298 298 300 300 300 300 299 299 301 301 302 303 302
318 318 318 318 318 318 317 317 316 316 314 313 309 309 310 315 316 317 314 304 298 309 306 307 300 302 305 309 312 311 304 299 300 307 307 314 305 304 301 297 296 297 299 299 294 293 290 293 297 300 299 296 296 295 296 297 297 294 292 290 288 295 291 288 292 295 295 293 289 290 290 293 296 298 298 299 299 300 301 300 300 301 300 300 301 303 303 302
319 319 318 318 318 318 318 317 317 314 314 314 312 311 316 318 316 315 313 300 299 300 304 304 304 304 302 303 310 307 304 301 304 302 310 310 301 306 303 298 297 297 296 297 296 293 292 298 299 298 298 297 295 296 294 292 290 294 295 293 292 294 294 292 292 294 295 295 295 292 292 292 295 295 295 298 300 299 300 299 300 301 303 303 304 304 304 302
319 318 318 319 318 319 317 316 313 313 316 313 309 316 316 316 317 313 310 297 297 301 308 307 308 309 305 313 314 304 303 305 307 307 309 308 303 300 300 302 298 294 296 297 296 294 295 298 301 296 299 296 297 292 293 295 288 291 295 295 294 295 293 296 296 293 289 288 294 294 282 284 290 292 293 296 297 297 299 299 299 301 301 302 302 303 303 305
319 318 319 318 318 318 317 312 314 316 308 308 312 316 316 316 316 309 305 293 288 297 301 293 305 296 313 304 311 310 303 297 306 310 309 312 311 304 301 297 299 293 296 296 295 295 295 298 300 298 297 296 297 295 296 296 290 289 290 297 299 296 296 294 294 291 282 281 293 295 284 281 287 290 293 294 294 294 295 298 299 300 301 301 302 302 303 304
320 319 319 318 318 317 312 310 315 313 308 310 316 318 317 316 314 313 294 289 283 295 291 305 299 299 310 304 305 304 288 292 309 311 309 311 306 311 297 294 297 298 299 300 292 291 296 296 297 298 298 295 295 291 297 296 291 287 295 297 298 296 294 294 293 292 287 293 294 294 291 282 283 289 293 295 294 294 294 295 297 298 299 300 301 303 303 304
319 319 318 319 318 317 314 314 312 309 308 312 317 316 318 315 317 312 294 278 278 299 296 293 304 309 311 305 309 297 297 301 297 302 306 311 309 303 298 296 295 295 298 296 285 298 297 294 297 296 295 292 292 295 299 298 293 294 295 299 296 297 296 295 292 290 289 287 283 288 293 283 282 288 293 294 291 292 293 294 296 299 299 298 301 304 304 305
318 319 318 318 318 318 317 315 313 311 314 315 315 316 317 315 307 300 287 277 297 294 307 294 311 308 304 305 302 300 298 302 296 302 309 308 308 303 294 296 297 296 298 297 289 296 297 297 298 299 294 291 296 294 298 299 291 295 298 299 298 298 297 294 289 288 286 283 280 286 291 281 284 287 290 291 290 291 292 294 297 298 298 299 303 302 303 303
317 318 318 318 317 316 315 316 313 315 316 315 316 315 317 312 300 287 282 273 300 289 298 297 298 296 299 296 295 298 296 299 301 302 303 300 304 307 301 301 299 296 295 297 297 295 297 297 297 299 296 298 293 295 296 297 298 298 298 296 295 293 290 290 288 285 283 279 281 290 291 287 280 287 288 289 290 292 293 294 296 302 302 303 304 302 302 303
315 318 317 317 313 315 315 311 314 317 317 317 315 314 310 304 291 282 275 286 300 297 297 294 294 300 295 293 290 295 297 298 298 299 296 302 298 300 300 296 302 295 290 292 290 295 297 297 296 298 298 298 297 294 297 299 298 298 294 290 290 288 287 285 284 285 279 278 285 289 291 289 278 282 292 294 296 294 293 293 294 298 301 304 303 303 303 302
313 314 317 317 319 318 312 311 313 318 317 316 314 308 300 286 290 279 279 295 287 291 291 290 296 295 294 295 294 292 292 296 298 297 294 294 293 293 293 289 291 284 284 285 285 293 291 293 296 296 297 297 295 292 292 295 296 297 291 289 283 281 281 279 282 277 278 277 283 283 289 285 284 288 292 293 294 295 296 297 297 298 300 305 304 302 301 301
312 313 316 317 316 315 316 313 315 315 317 315 310 303 293 284 275 285 286 289 286 296 293 298 293 294 294 293 292 293 297 292 298 296 297 296 294 293 296 295 295 291 283 288 287 285 288 294 295 295 295 298 298 289 285 284 290 293 288 283 281 276 276 273 277 280 281 283 282 284 288 282 288 291 294 295 297 295 295 296 299 299 299 299 301 304 303 301
312 312 315 316 318 318 315 315 314 317 314 310 303 295 290 281 279 293 289 290 294 298 299 296 294 294 293 290 293 294 290 296 295 295 297 293 293 290 293 295 296 293 292 287 284 285 281 282 290 292 287 297 296 294 292 289 290 292 293 290 284 280 276 273 276 275 276 279 283 285 280 279 279 285 293 295 296 297 298 298 300 301 301 302 302 301 301 302
312 312 315 317 316 316 314 315 315 314 311 305 298 290 282 281 286 285 286 293 294 297 295 298 293 292 290 294 296 295 295 291 296 295 294 293 289 291 291 292 295 296 294 286 288 286 286 286 294 297 295 297 295 298 298 294 290 290 293 294 286 283 285 278 280 282 280 280 279 280 280 283 286 292 295 296 294 296 295 295 297 298 298 300 300 299 299 299
311 313 315 312 313 315 314 314 315 314 309 300 290 285 283 286 284 292 290 300 297 294 294 296 295 289 288 290 294 293 297 294 295 294 293 294 294 291 295 295 294 296 292 286 289 283 286 282 294 296 296 295 296 298 298 297 282 288 291 284 288 292 290 284 281 282 280 278 277 281 283 287 290 293 294 294 295 294 295 295 294 295 299 300 298 299 300 299
307 311 306 310 312 315 314 314 314 311 307 297 288 283 288 291 298 300 301 297 298 297 293 288 288 289 287 287 289 292 294 297 293 292 288 294 291 295 294 296 298 296 297 294 288 293 284 287 290 292 291 295 293 296 298 295 298 291 283 288 293 294 292 285 278 280 277 276 278 280 279 282 280 282 291 289 290 291 292 292 295 296 295 297 298 299 300 300
305 306 305 307 313 315 314 314 312 309 303 296 286 289 292 288 300 298 301 299 299 297 293 290 291 294 289 289 288 291 293 290 291 291 288 292 287 298 295 295 298 298 298 298 289 292 293 283 287 291 292 294 297 296 295 297 296 292 289 298 289 281 281 283 280 274 273 273 275 278 280 281 284 286 289 290 290 291 292 292 293 293 295 296 297 298 299 302
304 303 297 305 315 314 313 313 309 304 297 291 287 287 291 293 299 300 301 300 301 298 291 292 291 293 293 289 291 292 292 286 293 289 286 289 285 295 295 297 296 299 299 299 292 292 293 283 285 288 291 294 293 292 284 286 294 297 296 292 295 287 282 281 281 280 280 274 273 276 278 279 288 289 290 290 291 293 295 293 293 294 296 297 297 298 301 301
300 296 294 312 315 314 313 311 304 300 294 285 287 288 297 292 295 297 301 300 298 294 294 295 295 292 293 294 294 290 292 291 292 290 289 291 290 297 295 299 297 297 298 299 295 296 287 289 281 285 290 292 283 288 286 289 286 285 286 284 288 285 289 284 284 282 278 275 275 274 276 281 289 292 291 291 292 292 292 293 294 295 296 297 298 301 303 302
301 295 297 313 314 313 311 305 298 293 291 291 294 291 296 293 297 298 299 301 299 301 296 294 294 292 294 293 293 295 291 291 292 290 290 292 291 287 297 298 299 296 298 297 294 293 286 284 283 283 283 284 287 293 293 293 293 290 289 287 290 285 282 278 279 287 283 281 276 277 276 283 292 294 295 293 294 295 296 295 297 297 298 298 300 304 301 301
294 287 292 310 314 312 304 294 294 298 294 289 287 293 293 300 298 298 299 299 298 297 300 297 297 295 294 295 296 294 292 290 292 291 291 289 295 293 298 301 300 300 296 289 292 296 293 288 283 281 283 287 291 295 296 296 295 293 292 288 291 290 286 281 277 279 284 282 284 280 278 283 293 293 293 294 295 295 296 295 295 296 296 297 302 304 302 301
291 289 307 311 313 309 301 292 295 294 292 295 299 297 299 299 297 300 297 298 294 298 296 294 296 294 295 295 296 293 294 290 292 291 293 292 295 297 300 299 302 298 298 293 296 295 295 285 283 284 289 293 293 294 294 295 295 291 291 292 290 287 288 285 282 282 281 281 281 280 279 284 293 293 294 295 295 294 295 297 296 296 299 299 301 302 301 301
292 291 297 306 312 309 296 286 286 290 292 296 296 295 298 297 297 296 296 297 295 295 294 295 296 297 295 297 294 292 297 286 293 293 290 295 293 303 301 301 301 296 295 293 291 295 287 285 285 281 281 284 286 289 287 291 291 286 286 291 292 292 291 287 286 285 282 283 283 281 277 283 292 291 292 294 294 295 294 296 298 298 297 299 300 301 301 299
292 295 294 302 307 303 291 292 289 289 290 291 292 292 294 295 298 298 297 295 298 298 296 294 296 298 295 296 294 295 295 292 287 292 293 292 293 299 301 301 299 294 299 297 298 299 290 288 287 281 278 277 276 278 279 282 284 286 287 290 293 291 290 285 283 282 281 284 285 283 282 288 293 293 293 292 292 294 294 295 296 297 297 299 299 300 300 299
288 281 289 292 300 300 299 300 296 292 289 290 289 291 294 292 297 299 299 297 298 298 297 297 297 298 295 294 292 292 292 296 292 289 290 289 291 292 295 295 298 296 295 296 296 296 286 288 289 287 286 283 283 285 289 291 285 284 285 288 289 292 293 290 286 284 282 285 283 285 286 287 289 292 292 293 292 293 294 294 295 297 296 296 296 298 298 298
293 285 286 283 294 295 293 296 294 294 290 293 287 291 289 292 295 296 300 293 298 296 296 296 296 293 292 293 290 290 292 292 294 292 291 291 293 293 296 296 297 296 295 294 296 290 287 287 289 289 287 288 290 291 294 292 287 288 286 285 289 289 290 289 287 285 290 283 282 288 289 286 289 292 293 291 293 293 296 295 296 296 297 298 299 299 299 297
284 288 290 292 287 284 286 289 293 292 293 293 289 293 290 290 291 289 296 297 299 298 293 295 296 295 294 292 292 288 291 291 292 289 293 293 293 295 294 296 294 295 295 294 297 293 287 286 289 289 288 290 291 291 292 292 292 291 289 288 287 289 289 287 288 290 290 285 283 288 288 287 290 293 294 293 294 296 296 297 296 296 296 296 296 297 297 297
291 292 291 295 286 289 289 291 294 292 291 292 290 291 289 289 289 292 293 293 295 295 296 288 292 294 295 295 293 289 291 286 287 292 289 289 290 291 288 292 294 294 295 292 291 290 288 285 288 289 287 289 290 290 291 291 291 290 291 291 291 290 289 290 290 291 291 288 290 290 290 289 292 294 295 296 297 298 299 299 299 299 299 299 298 297 297 298
287 286 286 293 293 291 290 290 292 291 288 291 287 288 289 289 288 291 294 293 289 292 297 291 293 295 295 295 294 290 292 293 292 289 293 292 288 291 289 292 288 287 289 289 291 289 291 285 290 288 285 286 289 291 291 290 289 288 290 292 293 293 291 290 290 290 290 290 291 291 289 289 295 297 297 298 299 299 298 298 298 299 299 299 297 297 298 298
294 295 294 290 286 287 289 290 289 289 287 289 287 288 289 290 289 292 292 296 293 291 294 292 294 294 295 294 293 293 296 295 295 295 296 295 289 294 291 290 294 287 287 287 288 289 290 285 288 286 284 284 288 288 289 289 288 287 287 289 290 290 288 290 288 291 289 287 289 288 287 288 294 295 297 298 298 297 297 298 298 299 299 299 298 298 299 299
295 296 297 292 285 289 287 289 289 289 285 289 289 288 288 289 292 292 289 295 296 297 296 295 295 294 292 292 291 294 297 297 297 296 296 298 299 297 298 297 297 290 287 287 289 288 287 286 285 285 283 284 287 288 286 286 286 284 285 288 290 291 292 292 293 293 293 293 288 286 287 293 295 296 295 296 297 297 297 298 298 299 299 298 297 299 299 300
Wind_Speed
7 6 5 5 4 5 4 4 3 2 2 1 0 1 2 3 5 5 6 7 7 7 7 7 7 8 8 8 8 8 8 2 2 4 6 0 1 2 2 3 4 5 5 5 4 3 3 3 4 2 2 1 0 0 0 0 0 0 1 1 2 5 2 4 1 4 5 5 5 5 6 4 4 3 1 0 1 0 5 1 4 5 5 8 7 7 9 8
7 5 5 5 6 4 4 4 3 2 1 1 1 2 3 4 5 6 6 7 7 7 8 8 8 8 8 8 8 7 5 0 4 6 3 1 2 1 4 4 4 4 4 2 4 4 6 4 2 4 3 2 1 1 0 1 0 2 1 2 4 1 1 3 5 8 2 4 6 5 4 4 5 7 3 3 3 4 3 3 4 5 8 7 6 8 9 9
8 7 6 6 6 5 4 2 2 1 0 2 2 3 4 4 5 6 6 6 7 7 8 8 8 8 9 8 8 8 3 1 2 6 3 3 2 4 3 4 4 2 1 3 3 5 6 5 3 4 3 2 2 2 1 1 1 2 1 3 2 1 4 7 7 4 4 3 6 4 3 2 5 4 3 2 4 7 6 4 5 6 8 8 8 8 8 7
9 8 7 7 6 5 3 3 2 1 3 2 3 3 3 4 4 5 6 6 7 7 8 8 8 8 8 9 8 6 1 1 2 3 2 4 4 4 4 4 4 4 4 6 6 5 5 6 2 4 2 3 2 0 3 2 1 1 1 1 1 4 1 5 6 5 4 5 1 4 2 1 2 2 3 4 2 4 5 6 5 9 9 13 12 10 9 9
9 8 7 7 6 5 3 3 2 2 2 3 3 2 3 3 4 5 6 6 7 7 7 8 8 8 8 8 10 2 0 1 1 3 3 4 4 4 3 4 4 3 4 5 5 5 5 5 1 3 2 2 3 2 3 2 0 0 1 3 3 5 3 3 5 5 4 4 2 4 4 2 3 2 2 3 3 3 1 0 1 0 4 13 13 11 9 9
9 8 7 6 4 4 4 3 2 2 2 2 2 3 3 4 4 5 6 7 7 7 7 7 8 9 9 8 5 1 0 2 0 1 2 4 3 3 3 5 5 3 4 4 3 1 2 4 3 3 2 2 4 3 3 3 2 1 0 2 4 2 2 1 2 3 4 2 1 2 2 3 1 1 4 4 5 1 4 6 7 5 6 14 12 11 9 9
9 8 5 4 5 5 5 3 4 3 3 4 3 3 4 5 6 6 6 7 7 7 7 7 8 9 12 7 2 0 3 1 0 1 0 4 4 2 4 4 4 3 2 2 4 2 3 4 4 3 3 3 5 3 3 3 1 0 1 1 3 3 4 4 2 2 2 6 3 1 2 1 2 2 0 5 5 5 4 5 7 8 6 11 12 10 12 12
12 10 8 6 4 5 5 5 5 4 4 5 5 5 5 5 7 7 7 7 7 7 7 7 8 8 9 1 2 2 2 1 3 3 0 1 4 2 2 3 3 2 3 3 3 4 3 4 6 2 3 1 3 3 3 2 3 3 2 2 1 2 2 3 2 1 1 1 2 3 2 3 1 1 3 4 4 4 3 5 6 6 6 5 10 10 9 9
12 10 9 8 4 6 5 6 5 5 5 5 5 6 6 6 7 7 8 8 8 7 7 7 7 8 3 2 2 2 4 1 4 3 3 4 4 3 0 2 3 3 2 3 2 4 3 3 5 2 1 3 0 4 2 2 2 1 2 4 3 3 3 2 2 1 0 1 1 1 4 2 4 3 4 9 5 5 5 5 5 5 5 5 6 10 9 9
13 11 10 7 6 7 7 7 6 6 6 5 5 6 6 7 7 8 8 8 8 7 6 6 8 7 3 1 1 2 1 7 4 1 3 2 5 5 4 2 4 4 3 1 2 3 2 3 2 3 1 3 0 2 1 3 0 1 4 3 3 4 3 1 1 2 0 0 1 1 3 1 1 2 6 3 7 7 5 6 5 6 5 5 5 5 7 9
13 12 10 8 7 8 8 8 7 6 7 6 6 6 6 6 7 7 8 8 8 5 5 5 6 6 1 2 1 5 1 2 2 1 2 2 4 3 2 4 3 3 4 2 3 2 4 4 4 1 2 0 2 2 2 0 2 1 4 5 4 3 2 1 2 3 1 1 1 2 4 5 4 1 10 3 2 4 6 5 4 5 4 4 6 7 6 6
11 11 10 9 8 9 8 8 7 7 7 6 6 6 7 7 7 7 7 8 7 5 6 5 5 2 2 1 5 1 4 2 2 2 0 2 2 1 3 2 2 3 3 1 2 3 3 3 4 2 0 1 2 3 1 2 1 2 3 3 4 3 2 4 3 4 3 0 2 1 4 5 4 5 15 6 4 4 4 4 5 5 4 5 5 5 6 7
10 9 10 10 10 9 9 8 7 8 7 6 6 6 7 7 7 7 7 7 5 7 5 5 3 2 1 2 1 1 1 1 1 4 1 1 2 0 1 0 2 2 3 1 2 1 2 2 2 0 1 2 3 1 1 2 1 0 2 2 4 3 3 7 3 4 1 1 1 2 2 7 9 16 14 5 7 5 4 4 4 4 5 5 5 5 5 6
10 9 9 11 10 9 9 8 7 8 7 6 6 6 7 7 7 7 6 6 7 6 3 4 2 2 0 0 0 1 2 2 1 2 1 0 1 1 1 0 1 2 4 6 1 1 2 1 1 3 1 4 1 2 1 1 1 1 3 0 2 3 2 8 4 4 3 1 2 1 2 7 7 4 2 6 7 7 5 5 5 5 5 5 6 5 6 6
10 8 10 10 10 9 8 8 8 7 7 6 7 7 7 8 8 7 6 6 6 2 2 1 2 1 2 1 1 1 2 3 1 2 2 2 3 2 2 2 3 3 3 3 1 1 2 2 1 1 2 1 4 2 3 2 2 1 2 3 3 3 0 1 2 6 4 0 3 2 3 9 12 3 1 2 3 2 4 4 5 5 5 6 6 6 6 7
10 10 11 10 9 9 9 8 8 7 6 7 7 8 8 8 8 7 6 7 7 6 2 1 2 1 2 3 1 1 1 2 3 1 1 2 2 2 3 3 1 1 1 2 0 2 1 2 3 1 2 0 2 1 4 2 1 1 3 1 3 3 2 1 2 1 3 3 1 5 5 4 1 4 3 4 5 3 2 4 4 5 5 5 5 7 7 6
12 10 10 10 9 9 9 8 6 6 7 8 9 10 10 9 8 6 7 5 4 4 3 1 3 3 2 1 2 2 4 2 1 1 1 1 1 3 3 2 1 2 1 1 1 2 1 0 1 1 1 2 3 3 2 2 1 3 3 4 1 4 4 3 2 1 0 1 2 4 4 6 9 7 2 3 4 5 5 6 6 5 5 5 5 5 7 7
10 11 10 10 10 9 8 6 7 6 7 8 9 7 7 7 6 6 4 3 2 2 4 3 2 1 3 3 3 4 4 4 1 2 2 1 1 3 0 1 2 3 2 2 1 0 1 1 0 0 3 1 3 3 3 3 5 5 5 4 4 1 4 1 3 3 2 1 3 2 8 10 9 12 12 7 6 7 7 7 6 6 6 5 5 6 8 8
11 11 9 9 9 8 7 6 6 6 7 10 11 10 9 8 5 4 2 3 2 2 2 4 4 6 0 6 5 5 3 1 3 0 2 1 0 1 0 1 2 4 2 2 0 1 0 2 0 2 4 4 5 4 5 3 4 5 2 1 2 4 4 3 2 1 2 3 4 6 8 8 7 9 9 7 7 9 9 8 7 7 8 8 8 8 8 8
11 10 10 9 7 8 7 6 5 4 6 7 3 2 1 1 1 2 2 2 5 1 2 2 8 4 4 5 3 2 2 3 3 3 3 2 1 0 2 3 1 2 1 2 2 0 1 2 3 3 4 5 4 6 2 4 4 2 1 0 3 4 2 3 3 2 0 1 5 8 9 10 10 10 9 8 6 6 5 5 6 6 8 9 9 10 11 10
12 12 11 9 6 6 6 4 3 4 5 5 5 2 3 6 5 4 4 3 6 1 1 4 4 3 4 5 4 5 6 1 2 2 0 1 3 2 3 3 2 2 3 1 4 0 0 1 4 5 5 1 2 3 2 1 3 2 2 3 4 1 2 2 1 1 3 1 2 4 6 10 9 7 7 6 7 11 9 8 9 10 10 8 9 11 12 12
11 10 9 8 5 5 4 3 1 4 7 4 4 3 3 2 2 1 0 3 4 2 3 2 2 3 1 5 2 2 3 3 1 3 1 0 2 3 4 4 5 4 4 4 4 1 1 4 4 5 3 4 4 4 5 3 2 2 0 1 1 4 2 2 3 0 0 1 6 5 6 12 12 8 8 8 9 12 9 9 11 9 9 9 8 11 13 7
10 10 9 8 6 5 3 3 2 3 4 3 2 5 1 1 1 1 1 1 3 0 2 1 2 5 3 1 1 1 4 4 5 4 4 2 4 2 6 5 6 3 6 6 4 4 2 4 10 2 3 5 3 4 1 1 0 1 2 1 3 1 1 2 1 1 3 2 3 4 6 13 16 10 12 14 14 15 14 9 9 8 9 9 10 10 9 8
11 10 10 8 6 5 4 1 3 4 4 4 4 2 2 1 2 2 0 1 1 1 1 3 1 3 5 5 4 3 3 2 4 7 4 3 7 3 2 7 6 4 6 6 6 5 4 1 2 4 2 2 3 1 3 2 2 4 4 3 3 2 1 1 1 2 2 3 2 6 7 8 10 11 5 7 13 11 9 6 6 7 7 9 7 7 6 6
11 10 10 8 7 5 3 1 2 1 2 1 3 1 3 2 0 2 0 2 1 1 3 2 2 2 3 2 3 3 1 2 3 5 5 4 5 2 3 3 3 5 4 6 6 5 3 0 1 4 1 1 1 3 4 3 3 2 6 8 5 3 2 3 3 5 3 1 0 1 7 5 1 3 6 3 3 3 5 6 7 10 9 7 8 11 7 6
11 10 9 9 8 7 6 1 3 1 2 2 2 2 1 2 1 0 1 1 3 3 2 5 3 4 3 3 3 1 2 2 2 1 5 0 3 1 2 1 2 3 7 5 5 3 1 0 0 4 4 3 1 2 4 4 3 1 1 3 3 1 4 1 1 1 2 1 1 0 0 9 4 13 14 12 12 9 4 6 9 8 9 7 10 7 6 7
11 10 10 11 11 10 3 2 2 2 2 2 1 2 1 1 3 1 2 0 5 5 7 1 1 1 1 6 5 2 4 4 1 1 1 3 1 1 2 4 2 1 2 1 4 3 3 2 4 1 4 4 3 3 1 5 1 3 1 2 0 2 2 1 1 2 3 1 2 5 4 6 10 11 8 11 14 12 8 8 9 9 9 9 6 6 6 5
6 11 12 13 14 11 3 1 2 2 2 0 0 0 1 0 1 0 1 2 3 6 3 3 1 2 1 3 3 5 1 9 5 2 3 0 0 1 1 3 7 4 1 4 6 1 2 5 4 3 2 3 5 1 5 5 3 1 1 3 2 4 4 1 2 1 2 2 7 3 1 4 6 3 6 9 9 9 9 7 8 11 11 7 5 6 5 4
4 10 13 13 14 10 3 3 2 2 1 0 0 0 0 2 1 1 2 2 1 3 4 7 3 1 3 2 3 4 2 1 1 3 1 1 2 0 4 4 3 5 5 4 4 1 3 1 2 5 5 5 3 2 3 5 3 1 2 2 4 3 2 2 1 1 2 2 8 5 4 3 16 4 5 5 6 8 6 7 9 10 8 5 6 6 5 4
11 7 14 15 10 2 3 1 3 2 1 0 0 1 1 1 1 1 4 6 4 3 1 2 1 8 6 9 4 3 3 1 3 2 3 2 1 0 1 1 1 2 4 5 0 2 1 3 4 1 3 1 4 3 3 4 2 5 3 4 2 1 1 1 1 1 2 4 7 9 8 4 9 4 8 7 7 8 6 3 4 1 5 5 5 6 5 4
12 3 12 10 5 4 3 3 3 2 2 1 1 2 2 0 2 4 5 4 3 3 1 3 4 10 11 13 8 4 3 3 3 6 3 0 2 2 0 1 2 2 5 2 1 2 1 1 0 0 2 3 4 4 5 1 2 3 1 2 2 1 2 1 1 2 1 8 2 2 8 7 5 5 2 3 0 3 2 3 4 4 5 5 5 5 5 5
11 12 6 10 2 5 4 1 1 2 1 2 2 2 2 4 3 6 4 4 2 5 6 5 5 8 13 8 6 10 9 5 5 7 8 6 5 7 6 6 4 3 2 5 3 2 2 3 1 3 5 2 3 6 3 3 1 1 2 3 5 2 2 2 1 2 5 7 1 2 1 3 14 13 2 2 2 2 1 2 2 4 4 5 5 5 5 5
13 11 2 8 4 3 1 1 1 2 2 1 1 1 3 4 7 8 6 7 2 3 1 6 10 11 9 8 5 7 5 8 6 5 6 5 8 7 7 8 9 8 4 5 4 2 2 1 4 2 4 4 4 8 2 1 3 3 6 7 5 3 3 4 4 2 2 1 3 1 3 5 10 11 7 16 12 5 5 4 3 2 2 2 2 4 5 4
11 9 2 5 3 2 4 3 2 0 2 5 3 4 2 5 6 9 7 5 1 2 5 3 9 6 11 10 5 8 4 1 9 5 6 5 5 6 7 9 6 7 1 2 8 7 3 4 5 6 3 6 6 8 12 7 9 10 4 8 8 6 4 4 4 6 6 4 0 4 2 8 2 6 0 4 2 1 1 5 2 0 1 1 2 1 3 5
11 6 3 1 4 3 5 3 3 2 6 4 4 5 10 9 5 7 9 2 2 2 3 4 8 10 7 3 1 10 2 3 7 6 6 8 8 7 9 9 10 5 3 3 4 2 10 5 2 14 1 12 12 5 6 4 2 4 4 1 3 9 1 3 1 0 0 1 1 2 6 2 5 4 12 6 6 6 4 6 5 6 4 1 2 5 6 4
6 0 1 1 2 4 6 4 2 4 6 6 5 5 12 11 5 4 2 3 2 5 8 6 3 6 6 5 2 5 4 3 7 4 4 7 6 8 7 6 12 16 8 9 3 3 3 4 2 3 4 15 10 4 4 7 5 5 4 7 6 1 0 1 2 2 2 2 9 3 6 9 6 16 15 11 15 11 11 9 6 5 1 1 5 7 9 7
1 0 1 2 2 5 6 5 4 4 5 9 7 10 7 3 0 1 3 4 2 12 8 8 4 6 7 5 4 3 2 3 5 5 5 4 5 7 8 7 9 12 13 10 3 3 6 3 2 2 4 0 1 1 0 4 1 6 4 5 1 3 2 3 4 1 2 7 8 3 8 11 3 14 4 3 1 2 2 5 8 10 6 5 8 8 10 6
3 1 3 3 4 7 6 6 6 2 4 8 12 13 5 3 1 2 3 5 2 9 5 7 3 8 6 8 7 8 4 7 7 5 3 10 4 8 11 6 10 11 14 7 4 2 3 3 2 2 3 2 3 1 1 2 4 3 3 1 5 2 4 3 2 5 5 4 4 4 6 7 10 18 9 12 8 5 3 5 6 6 7 7 7 8 6 4
2 2 3 5 7 8 7 8 5 5 2 6 5 10 5 7 2 1 5 4 3 2 8 6 3 5 5 8 5 9 10 8 9 7 5 4 5 6 13 8 4 11 12 11 7 2 2 4 1 2 2 0 1 3 9 2 2 1 3 1 0 1 2 6 6 1 2 6 3 8 5 8 10 11 6 5 5 7 12 7 6 7 7 8 6 5 5 4
3 2 4 5 9 8 8 6 6 4 2 4 4 5 3 8 10 11 1 4 2 3 1 2 7 6 8 6 10 7 8 9 10 7 7 4 6 3 6 10 4 6 9 12 6 5 3 4 5 0 4 1 1 4 7 9 9 3 1 2 1 1 1 3 3 5 5 3 5 4 8 8 13 4 5 5 4 4 4 4 5 5 5 4 2 1 4 4
2 2 0 6 10 9 8 4 3 7 6 2 2 3 4 5 5 8 8 4 1 2 1 2 4 1 3 6 5 9 5 8 7 7 6 4 9 1 3 7 7 6 5 6 7 4 1 4 7 3 0 5 6 6 11 14 15 13 13 12 13 8 4 4 8 1 1 4 3 3 11 9 17 3 7 1 1 2 3 6 5 3 2 2 2 1 4 5
3 3 3 8 9 13 9 7 4 2 3 7 8 6 4 4 3 6 6 2 1 1 1 1 1 1 3 0 2 5 6 7 7 6 5 7 6 4 1 8 8 9 10 6 9 7 5 2 3 5 8 9 6 1 7 0 2 5 8 9 10 7 5 4 7 4 0 3 1 3 4 16 13 6 1 5 2 2 5 5 4 4 5 4 2 1 1 2
4 4 4 7 11 11 8 6 5 5 6 6 3 4 3 4 5 5 7 4 3 3 1 1 3 2 1 1 2 4 2 3 7 7 4 8 2 1 3 4 8 10 6 1 4 2 7 1 1 3 2 1 2 1 2 0 1 1 4 1 5 8 8 6 4 3 5 2 4 3 8 13 19 1 8 4 3 2 3 3 5 4 3 4 5 5 5 1
3 4 2 1 7 7 8 10 9 11 9 2 7 6 8 4 7 5 7 6 7 5 6 3 2 1 1 2 1 1 1 1 2 2 1 1 3 5 4 5 7 4 4 3 5 5 4 2 5 2 1 0 1 2 3 1 1 1 2 3 3 3 6 4 2 0 4 7 9 7 14 13 9 3 4 5 2 1 3 3 1 2 4 5 5 3 1 3
3 2 3 2 5 6 11 8 8 7 8 8 7 10 8 7 7 10 8 7 4 2 2 3 4 3 2 2 0 0 2 0 1 4 2 2 1 2 7 5 6 2 4 2 5 4 3 3 8 8 11 11 9 7 5 3 7 3 3 4 7 7 4 6 6 4 9 8 13 9 10 14 14 1 3 5 3 0 3 3 2 2 2 5 5 5 5 4
6 4 4 4 5 5 7 4 4 5 8 9 9 9 9 8 5 10 11 8 11 4 6 2 3 4 3 2 2 2 4 2 3 1 1 1 1 2 1 5 3 1 4 8 5 1 2 1 3 7 11 12 5 0 2 7 4 7 7 10 7 7 9 6 3 5 14 13 12 10 13 17 22 19 12 10 2 1 1 4 5 6 5 6 6 7 7 5
2 6 6 6 4 7 8 8 8 4 6 8 8 5 11 11 6 5 11 6 10 10 5 8 4 8 5 8 9 8 10 8 4 6 6 3 0 1 3 4 3 4 6 4 5 4 2 2 5 5 8 9 4 3 2 9 7 9 7 6 8 7 8 11 11 16 13 5 14 12 11 11 23 26 15 6 6 9 10 6 7 6 8 7 8 8 6 5
5 6 6 4 5 7 11 11 12 11 9 6 7 5 8 10 10 6 6 6 6 13 7 5 9 11 11 15 10 8 9 11 8 6 6 6 3 0 1 2 1 1 4 1 3 4 4 5 5 4 8 9 7 8 7 5 3 3 7 9 10 12 10 11 15 18 12 11 15 12 6 12 20 22 18 4 5 11 9 6 5 5 6 6 6 6 6 7
5 2 3 5 8 5 9 8 11 13 12 10 5 8 8 11 13 12 5 6 5 6 12 7 13 14 12 11 11 8 9 6 9 10 6 4 8 2 1 0 1 3 3 2 2 0 2 3 4 3 7 9 9 11 10 11 9 6 5 6 8 12 16 18 19 18 18 15 13 16 18 18 16 20 19 10 7 13 14 10 12 12 13 12 9 8 8 8
8 7 3 2 2 5 3 8 7 11 13 11 9 8 7 10 13 10 7 8 7 8 10 13 10 15 13 12 12 11 11 13 9 10 7 8 4 7 4 6 2 1 1 4 3 2 6 5 6 3 3 11 15 12 9 9 9 12 8 9 11 11 14 18 16 14 13 14 17 20 19 20 18 15 14 16 13 10 11 12 13 16 15 11 7 7 9 10
3 3 3 2 6 6 4 3 9 10 9 11 11 10 9 11 12 9 8 9 11 8 10 16 13 9 11 13 12 12 7 9 10 6 6 13 11 7 9 2 9 4 2 2 1 1 5 2 2 3 6 7 11 11 10 7 6 6 8 10 13 15 15 8 9 7 10 15 15 12 13 18 18 6 9 18 15 8 12 17 16 11 11 10 8 9 11 12
6 5 4 2 5 4 7 3 4 6 11 10 12 14 10 14 9 5 6 6 9 9 10 13 12 8 7 11 15 15 10 3 1 4 4 5 2 3 1 2 0 7 7 6 3 7 6 4 4 3 5 9 9 4 5 2 0 5 12 20 21 14 12 12 10 10 15 13 10 11 16 14 15 13 11 15 18 17 14 13 16 16 12 8 8 10 11 12
Wind_Direction
180 189 192 187 193 205 188 199 186 180 199 166 60 12 341 331 344 341 342 345 345 349 351 352 352 348 344 345 346 348 333 294 216 215 215 56 185 63 38 338 348 330 345 312 259 244 247 225 230 172 180 165 74 291 188 260 18 275 207 190 253 243 200 163 183 144 153 144 157 181 184 153 133 167 130 91 83 307 130 158 125 78 65 102 114 115 115 121
158 164 204 191 197 191 197 193 171 185 36 15 4 342 331 341 340 343 339 343 346 345 352 355 350 347 346 344 346 337 332 230 261 245 226 128 177 71 30 360 344 335 312 249 216 218 256 183 200 189 182 206 179 111 199 135 217 187 224 186 241 286 336 1 52 39 37 105 166 173 200 204 167 153 164 161 189 178 209 184 167 147 104 104 120 123 133 140
175 189 198 210 195 193 208 221 152 40 288 319 319 321 321 333 333 339 341 342 343 347 350 352 352 344 347 345 336 324 300 221 260 253 115 268 65 48 18 359 319 318 243 309 298 293 272 321 172 196 221 163 227 150 255 160 117 257 37 235 204 101 66 33 48 67 52 338 141 151 189 241 119 140 133 216 186 170 200 191 184 192 164 160 152 148 148 160
175 185 191 206 197 203 209 225 232 271 270 291 297 305 317 313 322 340 347 345 345 343 347 351 347 349 343 338 334 314 264 326 245 112 82 31 35 30 11 326 311 283 244 254 257 278 305 282 207 215 206 243 154 71 164 167 129 26 92 242 355 317 54 26 50 39 25 8 84 123 68 267 134 118 168 177 268 227 205 203 188 194 186 173 163 158 157 166
175 186 192 201 206 208 219 241 240 256 259 270 284 304 310 317 336 346 347 351 348 348 347 346 348 346 346 336 318 280 22 310 183 44 21 355 13 21 335 316 302 292 248 277 281 255 252 258 216 231 259 198 125 124 222 109 335 21 207 74 353 0 64 11 68 22 356 304 43 95 141 219 81 61 187 220 195 219 216 328 224 205 206 158 158 163 158 169
170 191 188 198 220 219 229 240 270 271 276 261 301 322 318 337 341 344 348 349 351 348 345 347 345 346 340 330 309 248 195 194 118 88 320 355 355 343 324 299 301 279 284 258 266 254 255 240 205 223 219 238 162 185 146 115 102 236 125 86 49 20 76 22 69 8 332 343 111 185 20 42 124 192 197 229 222 161 137 110 84 63 82 142 144 146 166 172
161 158 170 190 221 228 237 240 256 283 292 297 303 304 333 332 335 341 344 348 347 346 346 348 348 344 334 313 228 300 229 333 117 190 1 338 328 297 306 281 263 291 271 282 242 237 220 237 221 192 224 228 155 189 118 128 174 322 65 90 43 30 74 22 82 357 6 351 40 1 275 283 125 250 265 210 216 236 124 113 110 103 94 124 141 164 173 182
154 161 171 179 223 233 237 239 247 266 278 285 297 308 332 325 332 335 343 344 345 344 349 350 345 349 349 263 140 186 162 219 70 166 357 351 314 356 309 264 270 282 274 253 298 232 197 245 204 241 254 267 172 154 181 140 193 210 183 118 116 82 93 78 96 77 34 41 0 358 324 243 239 260 15 256 239 226 219 121 126 121 124 147 148 171 177 183
152 152 162 146 190 244 244 252 257 262 270 275 291 304 311 321 323 334 336 342 344 345 347 348 347 346 309 279 230 274 209 55 314 334 19 9 334 297 183 326 186 236 267 269 274 307 325 229 252 193 322 137 122 104 194 181 199 217 70 108 135 95 108 128 109 121 195 98 322 305 247 253 106 122 264 253 238 219 216 143 141 137 135 161 176 175 179 183
150 156 160 164 195 229 243 245 257 257 267 275 282 293 299 310 318 330 332 337 341 345 347 348 351 336 318 213 177 249 137 248 296 13 26 355 309 293 231 345 345 321 276 113 273 290 245 341 34 355 8 41 242 66 48 30 23 350 137 123 123 127 119 249 155 132 135 28 163 272 284 220 67 113 276 234 242 212 212 158 159 151 174 183 190 194 185 184
158 165 166 179 185 222 236 244 245 254 262 270 281 292 297 310 319 320 329 331 336 344 352 346 354 333 222 228 237 225 196 283 330 357 24 283 316 360 23 342 346 327 308 134 28 25 340 341 343 356 32 140 80 81 17 22 310 114 93 88 95 167 136 175 202 140 171 173 253 279 278 313 164 143 242 208 355 116 160 176 182 176 195 204 204 197 200 194
170 175 176 184 195 220 232 241 245 253 255 265 282 291 302 310 314 314 321 329 322 351 346 348 350 322 276 268 225 296 280 34 298 320 37 355 58 177 286 317 309 306 329 296 70 33 4 334 338 36 342 336 132 93 80 233 260 133 162 151 167 151 187 172 186 180 204 115 257 59 296 265 217 231 242 208 143 146 169 187 204 205 206 214 222 204 188 198
169 173 185 191 203 215 228 237 242 248 251 261 277 291 303 305 303 311 313 317 337 330 339 19 332 233 311 188 87 258 280 348 54 292 106 97 143 234 192 269 283 339 321 9 96 0 329 314 359 40 43 304 87 153 162 261 94 138 258 313 146 189 239 193 171 122 163 100 200 83 321 253 226 226 245 151 162 149 165 197 195 200 198 208 205 209 199 188
168 180 194 200 200 213 224 229 236 246 257 270 284 295 297 300 298 294 300 298 308 310 349 358 1 272 293 315 55 87 347 328 261 257 85 294 250 343 172 211 12 61 43 84 76 251 286 276 301 104 66 31 135 265 149 107 99 186 178 195 228 130 271 161 155 156 196 104 239 39 227 285 300 22 359 143 152 157 190 203 220 218 213 205 204 200 203 206
173 172 197 197 200 213 217 226 234 245 254 270 284 289 297 295 290 286 287 288 266 312 344 300 231 177 201 82 256 90 335 283 253 97 35 341 149 147 122 84 53 49 48 70 117 246 260 318 345 133 57 300 88 139 135 146 208 247 74 281 278 220 46 122 53 155 199 241 235 127 272 261 268 262 107 63 87 161 211 225 233 232 224 202 190 197 205 215
171 175 195 195 200 205 212 223 236 257 270 278 281 288 286 283 282 283 275 268 280 271 228 254 163 296 320 211 82 305 268 211 135 69 59 268 359 121 116 107 151 133 157 27 322 284 295 42 59 61 129 341 212 186 176 114 236 250 170 256 189 217 166 208 252 98 50 112 275 189 239 322 287 144 157 155 145 167 212 267 253 247 249 239 198 189 202 212
180 187 193 189 196 201 208 218 231 254 266 274 283 281 274 267 274 267 261 271 251 192 216 325 143 161 261 6 305 223 179 75 274 174 166 49 317 137 131 152 114 94 50 201 343 302 10 79 270 353 332 196 194 221 160 202 230 215 178 237 247 175 166 210 11 281 177 235 200 234 252 242 272 279 172 226 181 168 197 215 233 244 235 224 223 210 201 202
176 189 189 191 196 199 216 226 242 256 271 276 277 282 286 285 283 278 240 211 207 196 220 205 240 167 228 28 201 165 94 122 112 112 10 335 321 285 111 169 133 142 172 119 3 85 23 60 356 212 146 257 227 221 154 200 202 195 189 216 260 219 273 226 163 178 171 182 288 243 228 247 258 278 284 259 200 194 205 210 218 227 240 244 229 219 217 209
186 192 198 209 212 223 224 238 248 266 277 289 278 273 273 274 248 237 223 157 164 99 188 179 184 185 227 176 103 80 48 120 110 184 182 200 223 321 267 322 195 153 168 194 212 215 190 66 47 319 164 209 217 208 183 260 41 20 56 192 233 208 224 216 64 174 228 182 213 240 252 260 248 255 260 260 236 217 218 217 224 227 232 238 242 244 240 227
185 187 195 209 209 208 220 230 261 283 319 306 216 208 176 153 158 133 168 204 246 84 354 85 186 91 117 88 77 339 211 246 131 4 90 353 115 211 219 192 73 323 187 181 147 234 48 149 174 199 213 189 206 220 209 62 24 351 331 310 340 0 356 91 95 44 334 337 249 239 251 259 258 256 262 266 277 270 257 245 233 222 224 228 232 238 241 239
186 194 194 202 203 204 211 230 242 291 309 291 291 226 183 175 153 176 160 215 238 88 49 63 30 39 81 102 131 169 120 77 302 146 135 357 321 189 173 171 142 199 230 153 130 149 35 203 217 222 226 279 203 170 82 72 20 34 14 8 314 147 294 40 134 177 27 65 294 302 292 275 269 265 264 264 263 260 246 242 243 242 236 230 227 239 243 242
194 197 196 202 196 209 223 226 287 303 280 272 270 234 8 32 328 24 119 177 226 120 126 78 236 88 36 128 170 13 311 120 159 118 155 214 200 167 162 203 167 197 161 80 77 78 97 194 227 220 118 102 52 51 61 32 347 87 324 334 343 284 144 67 67 315 141 111 263 270 294 285 277 266 267 260 252 256 239 225 234 230 236 237 232 235 243 239
191 196 201 192 191 210 213 226 284 273 295 207 220 241 35 37 304 114 287 317 169 135 167 190 167 135 111 24 199 241 194 157 167 171 175 198 158 267 142 197 179 194 139 157 150 161 187 228 238 100 112 92 64 85 49 119 55 296 161 249 225 245 73 284 340 345 234 203 267 320 303 284 282 268 248 244 238 245 247 239 244 228 232 233 229 229 231 224
190 189 190 183 175 197 212 222 281 275 237 271 297 340 97 83 327 278 224 260 147 171 202 174 226 166 153 152 170 175 208 148 133 171 129 179 179 138 196 193 195 193 174 189 192 186 196 60 38 104 84 130 126 124 129 134 230 211 214 218 241 224 180 95 127 255 234 227 4 317 287 270 264 278 285 249 230 239 260 261 256 252 234 232 243 258 237 227
188 186 180 171 170 166 170 140 249 207 27 328 267 97 116 92 229 337 95 224 227 149 320 359 128 266 150 316 123 193 122 61 7 135 157 197 157 93 219 196 228 208 198 188 208 231 226 221 223 98 137 115 137 142 195 164 240 242 206 193 211 270 354 60 30 15 352 318 291 42 353 291 302 279 269 309 51 218 243 227 236 241 243 240 242 242 250 252
191 182 173 161 156 153 117 232 166 138 171 203 47 84 104 110 54 338 66 223 247 136 36 202 112 204 105 148 102 223 47 185 352 23 139 19 340 215 70 295 145 213 200 182 205 197 187 349 216 140 135 133 187 187 203 161 212 273 274 6 6 323 80 86 4 43 338 272 256 292 41 277 311 284 280 283 282 264 257 222 241 244 245 232 229 230 227 230
189 184 165 162 160 140 192 108 55 131 190 130 31 71 96 145 31 348 129 51 279 165 157 350 113 232 37 163 152 151 149 192 155 10 89 354 187 50 179 172 94 13 306 156 42 254 92 184 71 96 118 131 171 191 196 154 167 243 304 314 352 104 96 90 77 150 233 317 276 170 172 257 288 268 263 264 261 261 254 249 252 253 247 232 217 202 219 213
206 186 168 172 166 176 357 302 145 198 40 12 307 174 152 110 198 203 41 178 256 135 147 232 229 325 321 153 198 169 22 122 139 201 19 153 26 67 38 175 176 180 223 94 187 7 146 163 147 154 162 152 187 213 180 167 166 189 233 269 95 79 100 78 132 284 259 38 292 176 178 316 241 248 216 231 259 264 252 238 236 239 244 244 200 186 173 154
1 191 173 174 172 190 347 324 312 13 86 33 345 278 282 88 349 209 189 216 150 114 314 123 309 148 86 124 178 137 141 5 308 84 245 55 20 91 190 250 240 186 192 176 195 90 360 144 193 167 151 192 122 16 354 176 149 251 211 88 98 77 54 82 10 66 325 24 267 166 183 221 283 211 231 220 222 252 238 225 224 234 234 197 127 119 117 106
7 199 182 176 165 158 291 284 255 86 146 148 232 218 193 222 117 175 119 252 136 179 63 106 216 167 164 147 158 162 151 103 44 124 159 164 159 257 346 135 313 240 178 197 185 65 106 205 162 91 190 109 119 56 48 45 81 136 178 89 61 53 76 352 67 84 28 262 255 168 191 165 292 290 190 152 214 208 226 224 245 78 90 103 123 134 147 160
4 343 181 157 169 168 149 231 97 91 106 185 239 256 206 79 197 171 192 203 348 82 133 142 122 142 163 161 165 194 138 120 143 146 117 168 108 316 213 12 353 41 31 15 355 149 135 48 310 94 51 120 103 68 15 21 111 127 130 125 90 6 27 28 347 48 138 260 351 187 167 190 200 316 18 88 10 185 160 256 191 146 141 132 145 161 171 170
355 355 183 172 153 134 179 168 119 279 123 95 288 162 157 142 315 202 199 64 245 176 175 171 154 159 178 175 140 176 164 138 157 168 151 174 151 176 210 183 152 114 270 178 240 60 215 218 134 48 309 148 135 89 2 18 350 23 135 112 118 226 68 290 84 259 198 236 259 331 247 270 236 234 102 59 25 2 321 239 102 141 132 157 183 185 184 180
352 347 253 187 100 161 91 160 246 259 156 29 56 57 165 155 205 205 228 147 264 113 181 142 159 171 174 173 179 166 143 166 168 197 144 178 164 211 203 199 180 176 191 173 194 109 269 134 152 125 37 260 172 131 155 29 237 190 171 161 130 196 192 233 223 215 240 277 299 352 18 246 265 284 242 250 255 273 287 276 260 157 200 231 186 172 179 191
343 337 345 203 177 87 108 153 167 244 37 36 88 66 51 199 217 196 209 190 62 322 112 141 150 152 171 185 172 150 160 197 156 182 166 163 191 188 211 233 199 219 257 128 185 174 218 304 238 125 249 172 206 197 177 171 177 201 189 165 176 163 173 210 174 206 216 203 220 294 80 236 121 234 274 90 146 28 24 324 302 22 226 282 344 328 237 208
328 312 318 184 204 120 134 152 145 135 114 80 79 168 179 210 229 186 211 172 106 89 85 134 145 154 185 170 347 164 127 172 175 161 186 163 201 203 185 203 214 207 165 221 205 141 210 223 217 181 135 159 188 209 164 116 152 216 205 210 242 223 108 202 197 101 311 42 308 226 212 243 220 295 287 271 266 270 286 287 291 269 282 34 314 287 278 229
320 256 12 292 218 146 143 147 149 126 120 104 108 171 207 198 201 162 226 126 169 150 136 129 134 161 180 168 337 177 317 117 190 154 212 204 208 204 194 189 196 195 180 195 154 168 143 229 99 78 126 173 197 168 211 144 190 213 140 218 200 21 95 333 2 71 109 22 254 170 293 276 313 286 262 248 255 253 248 230 249 287 290 237 274 272 270 266
293 34 274 200 235 147 145 142 127 129 143 137 155 210 213 228 230 335 12 327 232 131 144 139 208 177 178 186 178 197 142 77 173 153 203 167 254 219 211 219 186 194 209 175 244 197 147 198 325 98 188 285 19 298 8 32 60 102 189 221 80 47 91 144 216 53 174 223 263 139 249 284 47 284 41 87 298 296 271 202 216 235 228 223 242 246 252 268
312 257 278 267 156 148 147 142 132 144 158 153 181 202 45 249 276 356 350 332 175 151 164 171 173 187 183 173 188 176 186 172 180 177 217 163 258 189 208 214 193 197 203 206 182 261 144 254 222 356 359 359 351 14 295 42 47 111 176 330 141 253 255 242 102 245 242 240 277 248 236 258 225 255 267 307 308 311 280 238 220 227 216 221 236 249 265 251
280 290 261 197 135 148 149 144 133 148 132 172 153 206 203 247 339 339 9 332 313 269 200 193 172 204 181 192 169 176 163 186 162 198 163 194 216 188 198 186 199 190 190 189 210 244 93 195 293 325 4 117 51 143 199 200 344 129 12 347 47 109 189 163 194 201 130 243 227 276 268 258 237 240 281 267 277 251 259 254 227 208 195 214 229 225 208 196
233 190 243 113 139 130 135 136 131 147 89 174 179 218 112 206 244 255 281 0 12 5 310 249 200 169 216 218 166 163 189 191 166 194 196 169 207 195 187 179 175 186 170 186 209 155 257 144 234 269 303 97 206 199 212 158 173 243 168 255 239 138 293 108 299 183 175 193 212 265 282 256 255 213 240 224 227 255 262 242 238 203 196 202 208 199 159 183
260 274 331 124 133 127 123 115 168 186 186 222 221 246 174 189 204 249 241 103 137 32 319 31 355 255 190 206 213 154 168 186 182 190 193 202 184 244 222 170 159 171 163 182 196 163 192 143 201 119 351 228 230 196 198 187 189 187 185 203 193 161 160 197 257 199 186 194 222 218 254 283 268 130 240 351 351 53 66 85 69 65 64 9 358 150 159 161
212 195 198 148 132 139 134 179 209 200 185 187 204 185 210 210 204 233 235 125 66 259 9 338 183 187 326 302 3 149 157 186 194 194 193 206 202 214 213 179 170 151 159 175 196 189 167 153 157 180 207 210 217 227 210 69 193 223 194 218 200 197 166 166 214 244 117 260 314 216 295 262 256 78 344 339 350 32 61 50 21 343 324 310 292 231 177 170
217 207 32 154 156 153 150 216 202 202 219 210 142 181 184 183 190 181 204 179 204 152 351 245 219 50 325 168 10 36 346 171 191 207 177 204 223 221 160 295 137 165 134 121 144 257 74 133 160 263 142 75 61 101 37 183 112 339 276 252 159 204 191 195 181 184 173 193 207 236 236 261 275 164 250 194 148 95 351 5 316 296 285 302 259 210 202 190
203 234 137 226 202 188 175 202 203 209 217 196 177 202 188 201 177 178 193 191 188 165 189 187 9 237 341 81 78 116 329 148 356 104 239 88 177 346 18 39 142 184 149 212 159 195 150 243 170 156 283 187 322 6 342 5 44 238 219 197 218 214 186 195 181 77 247 201 202 173 239 247 279 156 144 155 118 152 233 265 209 283 291 276 280 290 274 220
241 240 279 123 206 218 208 207 216 203 215 207 186 206 179 209 207 197 184 195 183 202 123 212 198 140 189 92 1 192 343 129 346 317 56 337 91 29 27 15 35 35 84 10 72 179 162 183 163 197 215 221 223 204 200 223 218 225 222 217 198 199 170 105 205 164 226 229 224 217 251 258 256 77 66 70 118 164 235 217 238 246 263 296 310 314 288 283
207 197 195 196 199 224 249 326 336 233 207 200 217 217 196 210 189 202 191 198 183 195 199 142 164 157 174 130 175 257 255 203 185 285 81 246 244 5 47 3 5 44 27 80 17 97 159 254 193 201 215 230 229 156 206 148 105 185 220 201 211 196 201 185 149 187 218 228 233 233 237 260 272 261 256 269 337 282 310 330 326 299 280 255 249 258 263 263
241 229 165 194 158 238 239 225 231 243 230 183 217 187 209 209 192 197 190 216 187 194 200 201 165 174 203 205 212 231 233 251 226 255 233 230 344 154 1 21 63 89 96 66 346 78 88 210 230 231 246 255 251 215 100 136 168 215 213 223 214 212 202 205 202 225 221 232 253 235 232 250 263 270 261 272 293 283 277 272 276 276 270 261 254 259 255 274
223 227 231 192 210 195 206 222 219 227 241 229 231 195 211 204 207 206 182 229 176 190 195 193 203 196 181 191 182 205 192 212 201 217 243 244 277 10 91 12 54 163 104 70 8 125 139 213 235 237 252 258 267 287 295 287 226 215 210 205 203 210 213 211 226 237 230 219 243 252 230 237 257 268 276 240 254 272 281 287 271 261 279 287 287 269 259 258
252 326 259 193 217 217 215 226 204 218 223 225 243 222 206 208 213 208 168 185 215 203 198 203 202 202 199 187 187 201 185 190 215 214 209 190 209 177 233 1 338 30 124 91 65 178 82 271 256 226 271 273 273 267 269 277 281 268 261 252 214 207 213 216 225 229 230 239 247 256 257 252 256 268 277 288 276 284 290 291 293 293 278 268 271 274 260 260
194 208 234 302 328 273 230 195 185 199 221 212 230 224 224 217 220 203 191 170 185 209 195 220 207 201 200 193 195 207 198 199 193 206 197 195 214 202 221 194 151 343 39 161 126 265 139 237 201 196 234 265 261 259 260 259 260 268 262 251 252 240 226 220 225 233 240 249 247 251 260 268 257 258 291 286 276 283 293 288 275 272 283 286 274 269 269 262
269 227 320 303 244 227 263 243 192 196 205 213 225 228 229 227 229 209 216 180 189 185 185 212 214 202 206 212 214 224 212 205 209 214 193 185 209 199 187 246 150 150 157 102 110 165 155 245 65 157 204 247 250 249 251 243 244 255 266 259 249 244 247 234 229 222 225 231 238 250 257 257 268 291 269 279 285 279 277 277 279 282 276 283 288 277 274 270
246 302 305 255 257 217 215 232 260 185 214 209 212 217 212 222 229 201 238 199 194 194 186 205 209 211 218 215 226 224 227 257 91 104 97 44 47 39 330 323 76 157 171 170 158 149 173 166 168 162 207 243 249 176 238 248 183 237 237 237 236 240 243 251 251 232 228 227 236 233 243 255 268 275 277 274 275 275 271 278 284 279 275 270 264 266 265 267